TimeCDT,TemperatureF,Dew PointF,Humidity,Sea Level PressureIn,VisibilityMPH,Wind Direction,Wind SpeedMPH,Gust SpeedMPH,PrecipitationIn,Events,Conditions,WindDirDegrees,DateUTC
12:54 AM,78.1,70.0,76,30.17,10.0,South,5.8,-,N/A,,Clear,180,2013-07-18 05:54:00
1:54 AM,77.0,70.0,79,30.16,10.0,South,5.8,-,N/A,,Clear,170,2013-07-18 06:54:00
2:54 AM,77.0,71.1,82,30.15,10.0,South,6.9,-,N/A,,Clear,190,2013-07-18 07:54:00
3:54 AM,77.0,70.0,79,30.15,10.0,SW,6.9,-,N/A,,Clear,220,2013-07-18 08:54:00
4:54 AM,75.9,70.0,82,30.13,10.0,South,6.9,-,N/A,,Clear,190,2013-07-18 09:54:00
5:54 AM,75.9,69.1,79,30.13,10.0,SSW,4.6,-,N/A,,Clear,210,2013-07-18 10:54:00
6:54 AM,77.0,69.1,76,30.12,10.0,SSW,5.8,-,N/A,,Clear,210,2013-07-18 11:54:00
7:54 AM,80.1,70.0,71,30.12,10.0,SW,6.9,-,N/A,,Clear,230,2013-07-18 12:54:00
8:54 AM,84.0,71.1,65,30.11,10.0,SW,11.5,-,N/A,,Clear,230,2013-07-18 13:54:00
9:54 AM,88.0,70.0,55,30.10,10.0,SW,10.4,-,N/A,,Clear,230,2013-07-18 14:54:00
10:54 AM,91.0,70.0,50,30.09,10.0,West,12.7,-,N/A,,Clear,270,2013-07-18 15:54:00
11:54 AM,93.0,66.9,42,30.07,10.0,WSW,15.0,-,N/A,,Partly Cloudy,250,2013-07-18 16:54:00
12:54 PM,95.0,66.9,40,30.05,10.0,SSW,15.0,20.7,N/A,,Partly Cloudy,210,2013-07-18 17:54:00
1:54 PM,95.0,64.0,36,30.04,10.0,SW,16.1,24.2,N/A,,Partly Cloudy,220,2013-07-18 18:54:00
2:54 PM,95.0,64.9,37,30.01,10.0,SW,17.3,25.3,N/A,,Partly Cloudy,220,2013-07-18 19:54:00
3:54 PM,96.1,64.9,36,29.99,10.0,SW,19.6,-,N/A,,Partly Cloudy,230,2013-07-18 20:54:00
4:54 PM,95.0,66.0,38,29.97,10.0,SW,13.8,25.3,N/A,,Partly Cloudy,220,2013-07-18 21:54:00
5:54 PM,93.9,64.0,37,29.95,10.0,SW,18.4,-,N/A,,Partly Cloudy,230,2013-07-18 22:54:00
6:54 PM,93.0,66.0,41,29.94,10.0,WSW,12.7,-,N/A,,Partly Cloudy,240,2013-07-18 23:54:00
7:54 PM,90.0,66.0,45,29.94,10.0,SW,10.4,-,N/A,,Clear,230,2013-07-19 00:54:00
8:54 PM,87.1,66.9,51,29.93,10.0,SSW,6.9,-,N/A,,Clear,210,2013-07-19 01:54:00
9:54 PM,82.9,68.0,60,29.93,10.0,South,6.9,-,N/A,,Clear,190,2013-07-19 02:54:00
10:54 PM,82.9,68.0,60,29.92,10.0,SSW,6.9,-,N/A,,Clear,200,2013-07-19 03:54:00
11:54 PM,82.9,66.9,58,29.92,10.0,SSW,9.2,-,N/A,,Clear,210,2013-07-19 04:54:00